Location: Black Swamp Observatory
(41.3920°N, 84.1250°W)
Time: 03:33:58
(UTC-04:00)

A-11 Canister half - Pass Details

Date: 20 January 2022
Orbit: 1527 x 1682 km, 47.3° (Epoch: 27 May)

Event Time Altitude Azimuth Distance (km) Brightness Sun altitude
Rises 19:04:35 0° 297° (WNW) 4,793 12.4 -16.1°
Reaches altitude 10° 19:07:40 10° 295° (WNW) 3,827 11.9 -16.7°
Maximum altitude 19:17:21 69° 215° (SW) 1,739 9.4 -18.5°
Drops below altitude 10° 19:27:18 10° 135° (SE) 3,920 10.8 -20.3°
Enters shadow 19:29:11 - 134° (SE) 4,506 11.1 -20.6°
